[[{"header":{"parameterUnit":"m.s-1","parameterCategory":2,"la1":30.2991,"la2":30.254,"lo1":-89.0895,"lo2":-89.0444,"dy":0.0017,"dx":0.0017,"nx":28,"ny":28,"refTime":"2025-11-23T03:00:00:Z","depth":"0","parameterNumber":2,"parameterNumberName":"U-component_of_CURRENTS"},"data":[0,0,0,0,0,0,0,0,0,0,0,0,0,0,0,0,0,0,0,0,0,0,0,0,0,0,0,0,0,0,0,0,0,0,0,0,0,0,0,0,0,0,0,0,0,0,0,0,0,0,0,0,0,0,0,0,0,0,-0.2104,-0.2105,0,-0.2128,-0.2128,-0.2129,-0.211,-0.2109,-0.2109,-0.2108,-0.2059,-0.2059,-0.2058,0,0,0,0,0,0,0,0,0,0,0,0,0,-0.2028,-0.203,-0.2104,-0.2105,-0.2105,-0.2128,-0.2128,-0.2129,-0.211,-0.2109,-0.2108,-0.2108,-0.206,-0.2059,-0.2058,0,0,0,0,0,0,0,0,0,0,0,0,0,-0.2056,-0.203,-0.2104,-0.21,-0.2099,-0.2128,-0.2128,-0.2129,-0.211,-0.2109,-0.2108,-0.2107,-0.206,-0.2059,-0.2058,-0.2072,0,0,-0.2055,-0.2054,0,0,0,0,0,0,0,0,-0.2055,-0.2059,-0.21,-0.21,-0.21,-0.2116,-0.2084,-0.2107,-0.211,-0.2105,-0.2108,-0.2107,-0.2073,-0.2071,-0.2077,-0.207,-0.2068,-0.2055,-0.2054,-0.2054,-0.2053,0,0,0,0,0,0,0,-0.2053,-0.2058,-0.2112,-0.21,-0.21,-0.2092,-0.2095,-0.2088,-0.2092,-0.2105,-0.2104,-0.2109,-0.2072,-0.2078,-0.2075,-0.2067,-0.2055,-0.2054,-0.2053,-0.2053,-0.2037,-0.2037,0,0,0,0,0,0,-0.2055,-0.2056,-0.2111,-0.2113,-0.2076,-0.2094,-0.2097,-0.2111,-0.2093,-0.2091,-0.211,-0.2109,-0.208,-0.2077,-0.2074,-0.2094,-0.2054,-0.2053,-0.2052,-0.2036,-0.2037,-0.2037,0,0,0,0,0,0,-0.2053,-0.206,-0.2111,-0.2085,-0.2091,-0.2097,-0.2112,-0.2112,-0.2116,-0.2099,-0.2094,-0.2114,-0.2079,-0.2075,-0.2064,-0.2091,-0.2052,-0.2051,-0.2036,-0.2036,-0.2037,-0.2131,0,0,0,0,0,0,-0.2051,-0.206,-0.207,-0.2086,-0.2093,-0.2129,-0.2113,-0.2113,-0.2122,-0.212,-0.2101,-0.2095,-0.2078,-0.2065,-0.2063,-0.2089,-0.2051,-0.2036,-0.2036,-0.2037,-0.2127,-0.2134,-0.214,0,0,0,0,0,-0.2049,-0.2069,-0.2071,-0.2077,-0.2108,-0.213,-0.2133,-0.2131,-0.2123,-0.213,-0.2112,-0.2096,-0.2065,-0.2065,-0.2062,-0.2089,-0.2036,-0.2036,-0.2037,-0.2125,-0.2133,-0.214,0,0,0,0,0,0,-0.2038,-0.2069,-0.2071,-0.2099,-0.2113,-0.2127,-0.2134,-0.2136,-0.2131,-0.2123,-0.2102,-0.2096,-0.2089,-0.2072,-0.2073,-0.208,-0.2047,-0.2046,-0.2115,-0.2122,-0.2128,-0.214,-0.205,0,0,0,0,0,-0.2043,-0.2065,-0.2089,-0.2108,-0.2117,-0.2127,-0.2135,-0.2137,-0.2137,-0.2134,-0.212,-0.2101,-0.2091,-0.2093,-0.2069,-0.2087,-0.206,-0.2097,-0.2104,-0.2109,-0.2114,-0.2093,-0.2099,-0.2038,-0.2038,-0.2038,0,0,-0.2039,-0.2062,-0.2071,-0.2106,-0.2115,-0.2139,-0.2129,-0.2145,-0.2165,-0.2129,-0.2138,-0.2115,-0.2093,-0.2102,-0.21,-0.2095,-0.2113,-0.211,-0.2115,-0.2117,-0.2094,-0.2101,-0.2106,-0.2038,-0.2038,-0.2038,0,0,-0.2047,-0.2068,-0.2088,-0.2109,-0.2134,-0.2145,-0.2152,-0.2168,-0.2175,-0.2182,-0.216,-0.2166,-0.2138,-0.2152,-0.215,-0.218,-0.2133,-0.2156,-0.222,-0.2201,-0.2206,-0.221,-0.2192,-0.2194,-0.2177,-0.2177,-0.2177,0,-0.2039,-0.2076,-0.2095,-0.2124,-0.2144,-0.2151,-0.2177,-0.2193,-0.2201,-0.2212,-0.2187,-0.2176,-0.2172,-0.2204,-0.2217,-0.2201,-0.2163,-0.2201,-0.2212,-0.2215,-0.2218,-0.2198,-0.2199,-0.2182,-0.2181,-0.2181,-0.218,0,-0.2065,-0.2096,-0.211,-0.2152,-0.2175,-0.2198,-0.2226,-0.2244,-0.2245,-0.2255,-0.2267,-0.2261,-0.2256,-0.2265,-0.2255,-0.2282,-0.2239,-0.2211,-0.22,-0.223,-0.2207,-0.2206,-0.2188,-0.2187,-0.2185,-0.2184,0,0,-0.2035,-0.2114,-0.2115,-0.2135,-0.2194,-0.2204,-0.2257,-0.2296,-0.2306,-0.2324,-0.2337,-0.2366,-0.2352,-0.2348,-0.2342,-0.2352,-0.2363,-0.2295,-0.2292,-0.2291,-0.2302,-0.2272,-0.2268,-0.232,-0.232,-0.232,-0.2281,0,-0.2044,-0.2101,-0.2144,-0.2182,-0.221,-0.225,-0.2283,-0.232,-0.2337,-0.2346,-0.2379,-0.2367,-0.2386,-0.237,-0.2394,-0.2351,-0.2361,-0.2375,-0.226,-0.2257,-0.2238,-0.2267,-0.2154,-0.2108,-0.228,-0.228,-0.2279,0,-0.2047,-0.209,-0.2143,-0.2192,-0.2204,-0.2227,-0.2271,-0.2299,-0.2343,-0.2351,-0.2385,-0.2375,-0.2422,-0.2398,-0.2401,-0.2394,-0.2359,-0.2335,-0.2332,-0.227,-0.2226,-0.2101,-0.21,-0.208,-0.2278,-0.2278,-0.2278,0,-0.2005,-0.2074,-0.2114,-0.2137,-0.2204,-0.2225,-0.2246,-0.2296,-0.2311,-0.2342,-0.2343,-0.2383,-0.2381,-0.2367,-0.2363,-0.2355,-0.233,-0.231,-0.226,-0.2257,-0.2123,-0.2109,-0.21,-0.2294,-0.2294,-0.2294,-0.2294,0,-0.2,-0.2018,-0.209,-0.2111,-0.2119,-0.2179,-0.2185,-0.2216,-0.2257,-0.2267,-0.2325,-0.2338,-0.2363,-0.2366,-0.235,-0.2317,-0.2326,-0.2275,-0.2248,-0.2153,-0.2142,-0.2087,-0.2102,-0.2293,-0.2293,-0.2293,-0.2294,0,-0.1945,-0.2005,-0.2036,-0.21,-0.2104,-0.2102,-0.2133,-0.2132,-0.2188,-0.2205,-0.2211,-0.2289,-0.2301,-0.2328,-0.2301,-0.2292,-0.2217,-0.2237,-0.2134,-0.2097,-0.2032,-0.2056,-0.2017,-0.1965,-0.217,-0.2169,-0.2168,0,-0.1923,-0.1942,-0.1997,-0.1989,-0.2013,-0.2018,-0.2012,-0.2076,-0.209,-0.2176,-0.2176,-0.2221,-0.2241,-0.223,-0.2206,-0.2174,-0.217,-0.2051,-0.2037,-0.2025,-0.2031,-0.205,-0.2009,-0.1893,-0.189,-0.1888,-0.1886,0,-0.1864,-0.1888,-0.1906,-0.19,-0.1893,-0.189,-0.1902,-0.1912,-0.1993,-0.2027,-0.208,-0.2106,-0.2135,-0.2077,-0.2058,-0.2024,-0.1996,-0.2001,-0.1998,-0.1834,-0.1839,-0.1774,-0.1937,-0.1865,-0.1867,-0.1868,-0.1869,-0.187,-0.1786,-0.1778,-0.1797,-0.1773,-0.1762,-0.1746,-0.171,-0.1763,-0.1778,-0.1819,-0.1928,-0.1937,-0.194,-0.1907,-0.1884,-0.1795,-0.1856,-0.173,-0.1765,-0.179,-0.173,-0.1864,-0.176,-0.1762,-0.1763,-0.1764,-0.1765,0,-0.1679,-0.1678,-0.1657,-0.1628,-0.1565,-0.1611,-0.1609,-0.1574,-0.1565,-0.1651,-0.1687,-0.1711,-0.1654,-0.1674,-0.1623,-0.1567,-0.1528,-0.1539,-0.1521,-0.1494,-0.1596,-0.1574,-0.1412,-0.1412,-0.1412,-0.1412,-0.1412,-0.1412,-0.1618,-0.1573,-0.1569,-0.1436,-0.1401,-0.1302,-0.128,-0.1273,-0.1304,-0.1323,-0.1372,-0.1452,-0.1488,-0.1599,-0.152,-0.1452,-0.1427,-0.1384,-0.1436,-0.1497,-0.1517,-0.1537,-0.1518,-0.1348,-0.1348,-0.1248,-0.1247,-0.1247]},{"header":{"parameterUnit":"m.s-1","parameterCategory":2,"la1":30.2991,"la2":30.254,"lo1":-89.0895,"lo2":-89.0444,"dy":0.0017,"dx":0.0017,"nx":28,"ny":28,"refTime":"2025-11-23T03:00:00:Z","depth":"0","parameterNumber":3,"parameterNumberName":"V-component_of_CURRENTS"},"data":[0,0,0,0,0,0,0,0,0,0,0,0,0,0,0,0,0,0,0,0,0,0,0,0,0,0,0,0,0,0,0,0,0,0,0,0,0,0,0,0,0,0,0,0,0,0,0,0,0,0,0,0,0,0,0,0,0,0,0.0146,0.0147,0,0.0243,0.0244,0.0246,0.0293,0.0292,0.0292,0.0291,0.0411,0.0414,0.0418,0,0,0,0,0,0,0,0,0,0,0,0,0,0.0112,0.0112,0.0146,0.0147,0.0148,0.0243,0.0244,0.0246,0.0293,0.0292,0.0292,0.0291,0.041,0.0414,0.0418,0,0,0,0,0,0,0,0,0,0,0,0,0,0.0163,0.0112,0.0146,0.018,0.0183,0.0242,0.0244,0.0247,0.0293,0.0292,0.0292,0.0291,0.0408,0.0414,0.0419,0.0463,0,0,0.0435,0.0437,0,0,0,0,0,0,0,0,0.016,0.0165,0.0174,0.0177,0.0182,0.0252,0.0276,0.0319,0.0293,0.0255,0.0291,0.0291,0.0358,0.0367,0.0392,0.0469,0.0474,0.0435,0.0439,0.0441,0.0442,0,0,0,0,0,0,0,0.0156,0.0161,0.0189,0.0175,0.0179,0.0227,0.0233,0.0285,0.0312,0.0259,0.0261,0.0266,0.036,0.0387,0.0395,0.0476,0.0435,0.044,0.0443,0.0445,0.0614,0.0615,0,0,0,0,0,0,0.0131,0.0157,0.0185,0.0191,0.0165,0.0228,0.0235,0.0233,0.0311,0.0321,0.0266,0.0268,0.0378,0.0389,0.0399,0.044,0.0441,0.0446,0.0449,0.0613,0.0615,0.0616,0,0,0,0,0,0,0.013,0.0132,0.0182,0.0174,0.0183,0.0227,0.0226,0.0235,0.0256,0.0316,0.0327,0.0276,0.0378,0.0392,0.0446,0.0445,0.0448,0.0453,0.0611,0.0613,0.0615,0.0532,0,0,0,0,0,0,0.0128,0.0131,0.0128,0.0172,0.0182,0.021,0.0227,0.0237,0.0258,0.026,0.0328,0.0339,0.0378,0.0438,0.0451,0.0453,0.0457,0.061,0.0612,0.0615,0.0533,0.0531,0.0529,0,0,0,0,0,0.0127,0.0117,0.0127,0.0131,0.0174,0.021,0.022,0.0254,0.0258,0.027,0.0317,0.0337,0.0463,0.0443,0.0459,0.0461,0.0609,0.0612,0.0614,0.0534,0.0531,0.0529,0,0,0,0,0,0,0.0098,0.0122,0.0134,0.0131,0.0165,0.0216,0.0225,0.0249,0.0297,0.0296,0.0352,0.0367,0.0416,0.046,0.0436,0.0523,0.054,0.0546,0.0474,0.0472,0.047,0.0439,0.0462,0,0,0,0,0,0.0089,0.0089,0.0125,0.0124,0.0135,0.018,0.0199,0.0222,0.0265,0.0285,0.0335,0.0392,0.0444,0.0471,0.0528,0.0572,0.0589,0.0589,0.0587,0.0584,0.0573,0.0584,0.058,0.0626,0.0626,0.0625,0,0,0.0075,0.009,0.0089,0.0118,0.0145,0.0158,0.0191,0.0212,0.0227,0.0292,0.0331,0.0387,0.0457,0.0506,0.0532,0.0537,0.0586,0.0588,0.0585,0.0575,0.0586,0.0581,0.0577,0.0628,0.0627,0.0627,0,0,0.0045,0.0061,0.0051,0.0076,0.0108,0.0139,0.014,0.0192,0.0218,0.0268,0.0314,0.0366,0.0453,0.0496,0.0529,0.0554,0.0574,0.0579,0.0538,0.0549,0.0543,0.0539,0.0561,0.0559,0.0576,0.0575,0.0575,0,0.0028,0.0015,0.0056,0.0057,0.0064,0.0123,0.0114,0.0159,0.0225,0.0242,0.0269,0.0386,0.0445,0.049,0.0503,0.0544,0.0555,0.0532,0.054,0.0536,0.0533,0.0556,0.0555,0.0572,0.0572,0.0573,0.0573,0,-0.0006,-0.0014,-0.0018,-0.0003,0.002,0.0022,0.0077,0.0109,0.0148,0.0192,0.0251,0.0337,0.0398,0.0434,0.0478,0.0495,0.0512,0.053,0.0529,0.0522,0.0549,0.055,0.0567,0.0568,0.0569,0.057,0,0,-0.006,-0.005,-0.0052,-0.0065,-0.0019,-0.001,0.002,0.0055,0.0061,0.0148,0.0158,0.0267,0.0309,0.0351,0.0413,0.0435,0.0436,0.0468,0.047,0.046,0.0459,0.0512,0.0518,0.0441,0.0441,0.044,0.0487,0,-0.0107,-0.0143,-0.0111,-0.0136,-0.0155,-0.0094,-0.0075,-0.0026,0.0028,0.0064,0.0153,0.02,0.0279,0.0302,0.0336,0.0416,0.0432,0.0422,0.0494,0.0496,0.0519,0.0518,0.0552,0.0599,0.0488,0.0488,0.0488,0,-0.0152,-0.0177,-0.0221,-0.0228,-0.0229,-0.0222,-0.0199,-0.017,-0.0094,-0.0053,0.0011,0.0086,0.0158,0.0211,0.0321,0.0306,0.037,0.0429,0.0432,0.0507,0.055,0.0592,0.0604,0.075,0.0489,0.0489,0.0489,0,-0.0229,-0.0251,-0.03,-0.03,-0.0289,-0.0292,-0.0275,-0.0211,-0.0193,-0.0128,-0.0109,-0.0013,0.0041,0.0126,0.0283,0.0286,0.0393,0.041,0.0516,0.0521,0.0578,0.0589,0.0713,0.0455,0.0455,0.0455,0.0455,0,-0.0297,-0.0332,-0.0343,-0.037,-0.0418,-0.0372,-0.0393,-0.0355,-0.0304,-0.0288,-0.0179,-0.0144,0.0018,0.0119,0.0238,0.0393,0.0359,0.0506,0.0533,0.0556,0.0563,0.0717,0.0767,0.0456,0.0456,0.0456,0.0455,0,-0.0366,-0.0372,-0.0433,-0.0453,-0.0457,-0.0488,-0.0471,-0.0476,-0.0417,-0.0396,-0.0379,-0.0244,-0.0101,0.0072,0.023,0.0345,0.0564,0.0534,0.0563,0.0593,0.0822,0.0866,0.0992,0.1066,0.0644,0.0645,0.0647,0,-0.0402,-0.0444,-0.0505,-0.054,-0.055,-0.0579,-0.059,-0.0541,-0.0535,-0.0449,-0.0445,-0.0302,-0.0177,0.0094,0.0315,0.053,0.0633,0.0674,0.0689,0.0841,0.0909,0.0935,0.0989,0.0737,0.0739,0.0741,0.0742,0,-0.0476,-0.0498,-0.0553,-0.0636,-0.067,-0.0702,-0.071,-0.0721,-0.0651,-0.0611,-0.0524,-0.0418,-0.0127,0.0152,0.0448,0.0577,0.078,0.0712,0.0857,0.0982,0.103,0.1112,0.071,0.0756,0.0755,0.0754,0.0753,0.0752,-0.0522,-0.0585,-0.0657,-0.073,-0.077,-0.0805,-0.0825,-0.0809,-0.0789,-0.0693,-0.0584,-0.0381,0.003,0.0464,0.0613,0.0955,0.0908,0.1058,0.1094,0.1105,0.119,0.0828,0.0914,0.0914,0.0913,0.0913,0.0913,0,-0.0582,-0.0652,-0.0736,-0.0819,-0.087,-0.0866,-0.0885,-0.0875,-0.0844,-0.0704,-0.0574,-0.01,0.0303,0.0677,0.1151,0.1333,0.1362,0.1421,0.1469,0.1503,0.1179,0.12,0.1368,0.1368,0.1368,0.1368,0.1368,0.1368,-0.0616,-0.072,-0.0774,-0.0882,-0.0924,-0.0963,-0.0967,-0.0931,-0.083,-0.0574,-0.0296,-0.0057,0.0491,0.1229,0.1663,0.1698,0.1845,0.1822,0.1899,0.169,0.1659,0.1629,0.1664,0.1927,0.1928,0.2219,0.2221,0.2224]}],[{"header":{"parameterUnit":"m.s-1","parameterCategory":2,"la1":30.2991,"la2":30.254,"lo1":-89.0895,"lo2":-89.0444,"dy":0.0017,"dx":0.0017,"nx":28,"ny":28,"refTime":"2025-11-23T03:00:00:Z","depth":"2","parameterNumber":2,"parameterNumberName":"U-component_of_CURRENTS"},"data":[0,0,0,0,0,0,0,0,0,0,0,0,0,0,0,0,0,0,0,0,0,0,0,0,0,0,0,0,0,0,0,0,0,0,0,0,0,0,0,0,0,0,0,0,0,0,0,0,0,0,0,0,0,0,0,0,0,0,-0.182,-0.182,0,-0.1832,-0.1833,-0.1833,-0.1824,-0.1824,-0.1823,-0.1823,-0.1802,-0.1802,-0.1802,0,0,0,0,0,0,0,0,0,0,0,0,0,-0.1752,-0.1753,-0.182,-0.182,-0.182,-0.1832,-0.1833,-0.1833,-0.1824,-0.1824,-0.1823,-0.1823,-0.1802,-0.1802,-0.1802,0,0,0,0,0,0,0,0,0,0,0,0,0,-0.1775,-0.1754,-0.182,-0.1816,-0.1816,-0.1832,-0.1833,-0.1833,-0.1825,-0.1824,-0.1823,-0.1822,-0.1802,-0.1802,-0.1802,-0.1814,0,0,-0.1801,-0.1801,0,0,0,0,0,0,0,0,-0.1774,-0.1778,-0.1817,-0.1817,-0.1817,-0.1825,-0.1801,-0.1825,-0.1825,-0.1822,-0.1823,-0.1822,-0.1807,-0.1806,-0.1812,-0.1813,-0.1812,-0.1801,-0.1801,-0.1801,-0.1801,0,0,0,0,0,0,0,-0.1772,-0.1777,-0.1825,-0.1817,-0.1817,-0.1802,-0.1805,-0.1805,-0.1818,-0.1822,-0.1822,-0.1822,-0.1806,-0.1812,-0.1811,-0.1812,-0.1801,-0.1801,-0.1801,-0.1801,-0.1848,-0.185,0,0,0,0,0,0,-0.1772,-0.1776,-0.1825,-0.1826,-0.1792,-0.1804,-0.1807,-0.1824,-0.1819,-0.1817,-0.1823,-0.1822,-0.1812,-0.1811,-0.181,-0.1844,-0.1801,-0.1801,-0.18,-0.1847,-0.1849,-0.185,0,0,0,0,0,0,-0.1771,-0.1777,-0.1824,-0.1799,-0.1804,-0.1806,-0.1825,-0.1824,-0.183,-0.1819,-0.1817,-0.1828,-0.1812,-0.181,-0.1815,-0.1842,-0.18,-0.18,-0.1845,-0.1847,-0.1849,-0.1899,0,0,0,0,0,0,-0.177,-0.1777,-0.1784,-0.18,-0.1806,-0.184,-0.1825,-0.1825,-0.1831,-0.183,-0.1824,-0.1821,-0.1811,-0.1815,-0.1815,-0.1841,-0.18,-0.1843,-0.1846,-0.1849,-0.1896,-0.1903,-0.1909,0,0,0,0,0,-0.1767,-0.1777,-0.1784,-0.179,-0.1817,-0.1841,-0.1843,-0.1841,-0.1832,-0.1843,-0.1836,-0.1821,-0.1832,-0.1816,-0.1815,-0.1842,-0.1842,-0.1845,-0.1848,-0.1893,-0.1901,-0.1908,0,0,0,0,0,0,-0.1748,-0.1777,-0.1786,-0.1804,-0.1825,-0.1839,-0.1842,-0.1845,-0.185,-0.1847,-0.1832,-0.183,-0.184,-0.1838,-0.1821,-0.1865,-0.1838,-0.1841,-0.1872,-0.188,-0.1886,-0.1896,-0.18,0,0,0,0,0,-0.1749,-0.1775,-0.1794,-0.1816,-0.1821,-0.1834,-0.184,-0.1849,-0.1856,-0.1857,-0.1852,-0.1852,-0.1854,-0.1863,-0.1858,-0.1886,-0.1867,-0.1906,-0.1912,-0.1918,-0.1926,-0.1908,-0.1913,-0.186,-0.186,-0.186,0,0,-0.1748,-0.1771,-0.1782,-0.1815,-0.1827,-0.1846,-0.1837,-0.1858,-0.1882,-0.1854,-0.1875,-0.1864,-0.1861,-0.1885,-0.1893,-0.1889,-0.1926,-0.1922,-0.1926,-0.1932,-0.1911,-0.1916,-0.192,-0.1862,-0.1862,-0.1862,0,0,-0.1768,-0.1779,-0.1805,-0.1821,-0.1849,-0.1858,-0.1866,-0.1885,-0.1898,-0.1918,-0.1905,-0.1927,-0.1917,-0.1944,-0.195,-0.1997,-0.1947,-0.198,-0.2036,-0.2018,-0.2021,-0.2024,-0.2015,-0.2017,-0.1999,-0.2,-0.2,0,-0.1769,-0.1797,-0.1816,-0.1842,-0.1854,-0.1865,-0.1889,-0.1908,-0.1931,-0.1943,-0.1928,-0.1941,-0.1957,-0.1995,-0.202,-0.2015,-0.1975,-0.2004,-0.2024,-0.2027,-0.2029,-0.2019,-0.202,-0.2002,-0.2002,-0.2002,-0.2001,0,-0.1797,-0.1821,-0.1834,-0.1875,-0.1899,-0.1915,-0.1946,-0.1969,-0.1975,-0.1985,-0.2008,-0.2027,-0.2036,-0.2054,-0.2054,-0.2088,-0.2045,-0.2018,-0.2,-0.2037,-0.2024,-0.2025,-0.2006,-0.2005,-0.2004,-0.2004,0,0,-0.1791,-0.1843,-0.1846,-0.1864,-0.191,-0.1928,-0.1981,-0.2015,-0.2027,-0.2053,-0.2069,-0.2119,-0.211,-0.2119,-0.2126,-0.214,-0.2152,-0.2089,-0.2086,-0.2073,-0.209,-0.2052,-0.2048,-0.2095,-0.2096,-0.2096,-0.2077,0,-0.1802,-0.1844,-0.1878,-0.1916,-0.193,-0.1968,-0.2004,-0.2046,-0.2065,-0.2078,-0.2117,-0.212,-0.2137,-0.2136,-0.2157,-0.2142,-0.2152,-0.2159,-0.2063,-0.2061,-0.2017,-0.2048,-0.1877,-0.1843,-0.2077,-0.2077,-0.2077,0,-0.1799,-0.1833,-0.1872,-0.192,-0.1929,-0.1959,-0.2005,-0.2038,-0.2078,-0.2091,-0.2117,-0.2114,-0.2174,-0.2157,-0.2171,-0.2153,-0.2132,-0.2122,-0.2119,-0.2067,-0.2024,-0.1844,-0.1835,-0.2077,-0.2077,-0.2077,-0.2077,0,-0.1754,-0.1816,-0.1845,-0.186,-0.1925,-0.1957,-0.1982,-0.2034,-0.2056,-0.209,-0.2098,-0.213,-0.2148,-0.213,-0.2148,-0.2133,-0.2128,-0.2106,-0.2056,-0.2053,-0.1886,-0.1868,-0.2096,-0.2096,-0.2096,-0.2097,-0.2097,0,-0.1724,-0.1744,-0.1821,-0.1829,-0.1853,-0.1919,-0.194,-0.1973,-0.2021,-0.2035,-0.2087,-0.2105,-0.2131,-0.214,-0.2132,-0.2105,-0.2118,-0.2072,-0.2046,-0.1901,-0.1886,-0.2068,-0.2065,-0.2096,-0.2096,-0.2096,-0.2096,0,-0.1661,-0.171,-0.1746,-0.1818,-0.1829,-0.1848,-0.1901,-0.1909,-0.197,-0.1997,-0.2009,-0.2082,-0.2097,-0.212,-0.2108,-0.209,-0.2066,-0.2046,-0.1888,-0.1845,-0.2004,-0.2004,-0.1984,-0.1983,-0.1982,-0.1981,-0.198,0,-0.1635,-0.1651,-0.1713,-0.172,-0.175,-0.1781,-0.1787,-0.1862,-0.1886,-0.1979,-0.1986,-0.2034,-0.2045,-0.204,-0.2009,-0.1977,-0.2033,-0.1803,-0.1772,-0.2017,-0.1993,-0.1995,-0.1997,-0.157,-0.1566,-0.1563,-0.156,0,-0.1595,-0.162,-0.1629,-0.1631,-0.1651,-0.1672,-0.1702,-0.1721,-0.1813,-0.185,-0.1903,-0.1923,-0.1943,-0.1844,-0.1822,-0.1781,-0.1799,-0.1734,-0.2003,-0.1638,-0.1628,-0.1605,-0.1619,-0.153,-0.1533,-0.1535,-0.1536,-0.1538,-0.1545,-0.1532,-0.1531,-0.1524,-0.1543,-0.1551,-0.153,-0.159,-0.1616,-0.1655,-0.1753,-0.1726,-0.1737,-0.1617,-0.1558,-0.1513,-0.1638,-0.155,-0.1559,-0.1572,-0.1541,-0.153,-0.1408,-0.141,-0.1412,-0.1414,-0.1416,0,-0.1452,-0.1435,-0.142,-0.1403,-0.1377,-0.1428,-0.1449,-0.1423,-0.142,-0.1475,-0.1497,-0.1366,-0.1309,-0.1329,-0.1214,-0.121,-0.1184,-0.1157,-0.1108,-0.1139,-0.1166,-0.1114,-0.0867,-0.0866,-0.0864,-0.0863,0,0,-0.1388,-0.1332,-0.1311,-0.1237,-0.1228,-0.1167,-0.116,-0.1149,-0.1159,-0.1125,-0.1106,-0.1211,-0.1261,-0.1049,-0.1016,-0.0919,-0.1013,-0.0872,-0.1308,-0.1278,-0.1303,-0.1387,-0.134,0,0,0,0,0]},{"header":{"parameterUnit":"m.s-1","parameterCategory":2,"la1":30.2991,"la2":30.254,"lo1":-89.0895,"lo2":-89.0444,"dy":0.0017,"dx":0.0017,"nx":28,"ny":28,"refTime":"2025-11-23T03:00:00:Z","depth":"2","parameterNumber":3,"parameterNumberName":"V-component_of_CURRENTS"},"data":[0,0,0,0,0,0,0,0,0,0,0,0,0,0,0,0,0,0,0,0,0,0,0,0,0,0,0,0,0,0,0,0,0,0,0,0,0,0,0,0,0,0,0,0,0,0,0,0,0,0,0,0,0,0,0,0,0,0,-0.0066,-0.0065,0,0.001,0.0011,0.0012,0.0064,0.0064,0.0064,0.0064,0.0178,0.018,0.0183,0,0,0,0,0,0,0,0,0,0,0,0,0,-0.0113,-0.0113,-0.0066,-0.0065,-0.0064,0.0009,0.0011,0.0012,0.0064,0.0064,0.0064,0.0064,0.0177,0.018,0.0184,0,0,0,0,0,0,0,0,0,0,0,0,0,-0.0068,-0.0113,-0.0066,-0.0032,-0.0028,0.0009,0.0011,0.0012,0.0064,0.0064,0.0064,0.0064,0.0175,0.018,0.0184,0.0208,0,0,0.0197,0.0199,0,0,0,0,0,0,0,0,-0.0071,-0.0066,-0.0038,-0.0034,-0.003,0.0025,0.0035,0.0079,0.0064,0.0032,0.0064,0.0064,0.0128,0.0136,0.0154,0.0213,0.0218,0.0198,0.02,0.0202,0.0204,0,0,0,0,0,0,0,-0.0074,-0.0069,-0.0033,-0.0037,-0.0032,-0.0003,0.0003,0.0044,0.0081,0.0035,0.0038,0.0042,0.0131,0.015,0.0157,0.022,0.0198,0.0202,0.0204,0.0206,0.0392,0.0394,0,0,0,0,0,0,-0.0092,-0.0072,-0.0035,-0.0031,-0.0054,-0.0003,0.0005,0.001,0.008,0.009,0.0041,0.0044,0.0142,0.0152,0.0161,0.0209,0.0202,0.0206,0.0209,0.039,0.0393,0.0395,0,0,0,0,0,0,-0.0094,-0.009,-0.0038,-0.0052,-0.0044,-0.0003,0.0003,0.0011,0.0031,0.0084,0.0095,0.0052,0.0142,0.0155,0.0206,0.0213,0.0208,0.0212,0.0387,0.0391,0.0394,0.0294,0,0,0,0,0,0,-0.0095,-0.0091,-0.0094,-0.0053,-0.0044,-0.0017,0.0002,0.0012,0.0031,0.0035,0.0097,0.0108,0.0144,0.0199,0.021,0.0219,0.0216,0.0384,0.0389,0.0393,0.0295,0.0294,0.0294,0,0,0,0,0,-0.0097,-0.0111,-0.0095,-0.009,-0.005,-0.0017,-0.0009,0.0023,0.0031,0.0041,0.0087,0.0106,0.0236,0.0203,0.0216,0.0226,0.0382,0.0387,0.0392,0.0295,0.0294,0.0294,0,0,0,0,0,0,-0.0139,-0.0106,-0.0087,-0.0091,-0.0055,-0.0009,-0.0005,0.0019,0.0063,0.0067,0.0118,0.0132,0.0183,0.0232,0.0195,0.0304,0.032,0.0327,0.0242,0.0241,0.0241,0.0213,0.0219,0,0,0,0,0,-0.0149,-0.0141,-0.0104,-0.0101,-0.0091,-0.0047,-0.0031,-0.0005,0.0037,0.0056,0.0103,0.0165,0.0217,0.0246,0.0303,0.0349,0.0371,0.0377,0.0376,0.0375,0.0368,0.0389,0.0387,0.0412,0.0412,0.0412,0,0,-0.0163,-0.0143,-0.0139,-0.0108,-0.008,-0.0067,-0.0036,-0.0014,0.0006,0.0061,0.0104,0.0156,0.0231,0.0283,0.0313,0.032,0.0386,0.0381,0.0378,0.0373,0.0394,0.0391,0.0388,0.0416,0.0415,0.0414,0,0,-0.0187,-0.0171,-0.0174,-0.0148,-0.0111,-0.0083,-0.008,-0.003,-0.0001,0.0047,0.0095,0.0151,0.0235,0.0286,0.0321,0.0358,0.0377,0.039,0.0358,0.0378,0.0374,0.0371,0.04,0.04,0.0392,0.0392,0.0391,0,-0.0204,-0.0207,-0.0168,-0.0162,-0.0153,-0.0097,-0.0099,-0.0057,0.001,0.0029,0.0055,0.0174,0.0236,0.0288,0.031,0.035,0.0363,0.0338,0.0369,0.0366,0.0364,0.0395,0.0396,0.0387,0.0388,0.0388,0.0389,0,-0.0229,-0.023,-0.0232,-0.0205,-0.0183,-0.0177,-0.0123,-0.009,-0.005,-0.0008,0.0055,0.0139,0.0207,0.0247,0.0287,0.032,0.0334,0.0351,0.0346,0.0354,0.0389,0.0391,0.0381,0.0383,0.0384,0.0385,0,0,-0.0272,-0.0257,-0.0256,-0.0258,-0.0212,-0.0199,-0.0166,-0.0128,-0.0115,-0.0035,-0.0015,0.0092,0.0132,0.0179,0.0241,0.0271,0.0282,0.0301,0.0304,0.0288,0.0321,0.0357,0.0365,0.0283,0.0283,0.0283,0.0348,0,-0.0306,-0.0329,-0.0299,-0.0308,-0.0321,-0.0262,-0.0238,-0.0187,-0.0134,-0.0093,-0.0007,0.0045,0.0108,0.0138,0.0175,0.0262,0.0285,0.0263,0.0354,0.0358,0.0353,0.0368,0.0337,0.0394,0.0351,0.0352,0.0352,0,-0.0343,-0.0357,-0.0388,-0.0378,-0.0377,-0.0364,-0.033,-0.0297,-0.0221,-0.0179,-0.0119,-0.005,0.003,0.0074,0.0192,0.0167,0.0233,0.0294,0.0298,0.0365,0.0399,0.0387,0.0402,0.0358,0.0357,0.0357,0.0356,0,-0.0412,-0.0416,-0.0451,-0.0447,-0.0423,-0.0418,-0.0396,-0.0329,-0.0305,-0.0235,-0.0212,-0.0117,-0.0058,0.0026,0.0176,0.0172,0.0293,0.0307,0.0398,0.0402,0.0415,0.0419,0.0363,0.0363,0.0363,0.0363,0.0362,0,-0.0472,-0.0493,-0.0489,-0.0508,-0.0535,-0.0485,-0.0488,-0.0447,-0.039,-0.0367,-0.0265,-0.0226,-0.0071,0.0029,0.0142,0.029,0.0269,0.0393,0.0419,0.0386,0.0387,0.0389,0.0391,0.0365,0.0364,0.0364,0.0364,0,-0.0536,-0.0536,-0.0574,-0.0573,-0.0571,-0.0586,-0.0554,-0.0549,-0.0486,-0.0454,-0.0434,-0.0303,-0.0163,-0.0004,0.0159,0.0259,0.039,0.044,0.04,0.042,0.0489,0.0487,0.0541,0.0542,0.0544,0.0545,0.0546,0,-0.0572,-0.06,-0.0632,-0.0653,-0.0654,-0.0663,-0.0664,-0.0607,-0.0593,-0.0497,-0.0488,-0.0345,-0.023,0.0031,0.0229,0.0429,0.0429,0.0507,0.0503,0.0487,0.0507,0.0501,0.0497,0.0486,0.0486,0.0487,0.0487,0,-0.0632,-0.0643,-0.0682,-0.0736,-0.0753,-0.0767,-0.0761,-0.0764,-0.0687,-0.0642,-0.0553,-0.0452,-0.0185,0.0043,0.0311,0.0421,0.0476,0.0522,0.0509,0.0448,0.0441,0.0459,0.0455,0.0491,0.049,0.049,0.049,0.049,-0.067,-0.0715,-0.0766,-0.0813,-0.0835,-0.0855,-0.0866,-0.084,-0.0811,-0.0715,-0.0612,-0.0433,-0.0205,0.0182,0.0364,0.0537,0.0537,0.0575,0.0571,0.0567,0.0551,0.0548,0.0614,0.0615,0.0615,0.0615,0.0616,0,-0.0717,-0.077,-0.0829,-0.0884,-0.0918,-0.091,-0.0915,-0.09,-0.0864,-0.0736,-0.0616,-0.0359,-0.0084,0.0154,0.0434,0.0599,0.0579,0.0616,0.0554,0.055,0.0547,0.0528,0.0586,0.0587,0.0587,0.0587,0,0,-0.0744,-0.0825,-0.0864,-0.094,-0.0967,-0.0992,-0.0993,-0.0953,-0.0862,-0.0737,-0.0584,-0.0368,-0.0072,0.0116,0.032,0.0463,0.0461,0.0473,0.0479,0.0378,0.0372,0.0507,0.0472,0,0,0,0,0]}],[{"header":{"parameterUnit":"m.s-1","parameterCategory":2,"la1":30.2991,"la2":30.254,"lo1":-89.0895,"lo2":-89.0444,"dy":0.0017,"dx":0.0017,"nx":28,"ny":28,"refTime":"2025-11-23T03:00:00:Z","depth":"4","parameterNumber":2,"parameterNumberName":"U-component_of_CURRENTS"},"data":[0,0,0,0,0,0,0,0,0,0,0,0,0,0,0,0,0,0,0,0,0,0,0,0,0,0,0,0,0,0,0,0,0,0,0,0,0,0,0,0,0,0,0,0,0,0,0,0,0,0,0,0,0,0,0,0,0,0,-0.1007,-0.1008,0,-0.1067,-0.1067,-0.1067,-0.112,-0.1121,-0.1122,-0.1123,-0.1158,-0.1158,-0.1158,0,0,0,0,0,0,0,0,0,0,0,0,0,-0.0886,-0.0888,-0.1007,-0.1008,-0.101,-0.1066,-0.1067,-0.1067,-0.112,-0.1121,-0.1122,-0.1124,-0.1158,-0.1158,-0.1158,0,0,0,0,0,0,0,0,0,0,0,0,0,-0.0936,-0.0888,-0.1007,-0.1047,-0.1051,-0.1066,-0.1067,-0.1067,-0.1119,-0.1121,-0.1123,-0.1124,-0.1158,-0.1158,-0.1158,-0.1124,0,0,-0.1158,-0.1158,0,0,0,0,0,0,0,0,-0.0933,-0.094,-0.1039,-0.1044,-0.1049,-0.1092,-0.1037,-0.1087,-0.1119,-0.1088,-0.1123,-0.1125,-0.1136,-0.1138,-0.1138,-0.1126,-0.1127,-0.1158,-0.1158,-0.1157,-0.1157,0,0,0,0,0,0,0,-0.093,-0.0938,-0.1025,-0.1041,-0.1047,-0.1044,-0.1052,-0.1046,-0.1097,-0.1091,-0.1096,-0.111,-0.1138,-0.1138,-0.1139,-0.1128,-0.1158,-0.1158,-0.1157,-0.1157,-0.1145,-0.1144,0,0,0,0,0,0,-0.0935,-0.0935,-0.1024,-0.1028,-0.1,-0.1045,-0.1055,-0.1072,-0.1098,-0.1106,-0.1109,-0.1113,-0.1138,-0.114,-0.1141,-0.1187,-0.1157,-0.1157,-0.1157,-0.1145,-0.1145,-0.1144,0,0,0,0,0,0,-0.0932,-0.0942,-0.1021,-0.0986,-0.0997,-0.1046,-0.1065,-0.1073,-0.1103,-0.1113,-0.112,-0.1136,-0.1139,-0.1141,-0.1156,-0.1186,-0.1157,-0.1157,-0.1145,-0.1145,-0.1144,-0.1225,0,0,0,0,0,0,-0.0928,-0.094,-0.0953,-0.0987,-0.0999,-0.1047,-0.1064,-0.1073,-0.111,-0.1116,-0.1137,-0.1141,-0.114,-0.1156,-0.1155,-0.1185,-0.1157,-0.1146,-0.1145,-0.1145,-0.1223,-0.1227,-0.1232,0,0,0,0,0,-0.0923,-0.0936,-0.0954,-0.0965,-0.1016,-0.1048,-0.1054,-0.109,-0.111,-0.1123,-0.1137,-0.1142,-0.1152,-0.1155,-0.1155,-0.1186,-0.1146,-0.1145,-0.1145,-0.1221,-0.1227,-0.1231,0,0,0,0,0,0,-0.0887,-0.0944,-0.0964,-0.0993,-0.1027,-0.106,-0.1079,-0.1101,-0.1121,-0.1132,-0.114,-0.1144,-0.1164,-0.1152,-0.1155,-0.1175,-0.1149,-0.1148,-0.1206,-0.1212,-0.1216,-0.1235,-0.1157,0,0,0,0,0,-0.0885,-0.091,-0.0962,-0.0982,-0.1008,-0.1046,-0.1065,-0.109,-0.1114,-0.1127,-0.1144,-0.1151,-0.1153,-0.1168,-0.1159,-0.1174,-0.1181,-0.1189,-0.1193,-0.1198,-0.1209,-0.1253,-0.1264,-0.1142,-0.1142,-0.1142,0,0,-0.0877,-0.0909,-0.0926,-0.0976,-0.1008,-0.1045,-0.1061,-0.1099,-0.113,-0.1124,-0.1168,-0.1165,-0.1156,-0.1174,-0.1183,-0.1178,-0.1231,-0.1197,-0.1201,-0.1211,-0.1254,-0.1266,-0.1277,-0.1142,-0.1142,-0.1142,0,0,-0.0864,-0.0907,-0.0925,-0.0965,-0.102,-0.1048,-0.1068,-0.1117,-0.1145,-0.1174,-0.1178,-0.1195,-0.1202,-0.1211,-0.1212,-0.123,-0.1245,-0.1228,-0.1284,-0.1327,-0.1338,-0.1348,-0.1364,-0.1375,-0.1241,-0.1241,-0.1242,0,-0.0851,-0.0896,-0.0932,-0.0967,-0.1014,-0.1057,-0.11,-0.1125,-0.117,-0.1201,-0.1198,-0.123,-0.1219,-0.1257,-0.1264,-0.1245,-0.1268,-0.1273,-0.1338,-0.1348,-0.1357,-0.1371,-0.1382,-0.1245,-0.1245,-0.1244,-0.1244,0,-0.0863,-0.0908,-0.0929,-0.0995,-0.1033,-0.1084,-0.1138,-0.1176,-0.1216,-0.1248,-0.1297,-0.1286,-0.1315,-0.1309,-0.1295,-0.1356,-0.1349,-0.1336,-0.1337,-0.1375,-0.1385,-0.1396,-0.1251,-0.1249,-0.1248,-0.1247,0,0,-0.0823,-0.0922,-0.0932,-0.0984,-0.107,-0.1106,-0.1163,-0.1239,-0.13,-0.1325,-0.1399,-0.1393,-0.141,-0.1409,-0.1401,-0.1436,-0.1507,-0.1427,-0.1427,-0.1464,-0.1603,-0.1468,-0.1466,-0.1527,-0.153,-0.1532,-0.1582,0,-0.0836,-0.0906,-0.0956,-0.104,-0.1097,-0.117,-0.123,-0.1294,-0.1348,-0.1422,-0.1435,-0.1482,-0.1444,-0.1469,-0.1501,-0.1502,-0.154,-0.1494,-0.154,-0.154,-0.1435,-0.1475,-0.1539,-0.1589,-0.1592,-0.1593,-0.1595,0,-0.0841,-0.0898,-0.0977,-0.1103,-0.1139,-0.1192,-0.1321,-0.1378,-0.1475,-0.1519,-0.1573,-0.1588,-0.1629,-0.1593,-0.164,-0.1622,-0.1625,-0.1621,-0.1623,-0.1479,-0.1425,-0.1541,-0.1613,-0.1612,-0.161,-0.1609,-0.1608,0,-0.0803,-0.0919,-0.099,-0.1035,-0.1168,-0.1226,-0.1305,-0.141,-0.1476,-0.1583,-0.1632,-0.1693,-0.1714,-0.1743,-0.1711,-0.1703,-0.1759,-0.1741,-0.1622,-0.1612,-0.1687,-0.1675,-0.1794,-0.1794,-0.1794,-0.1794,-0.1794,0,-0.0805,-0.0866,-0.0987,-0.1029,-0.1142,-0.123,-0.1349,-0.1431,-0.1545,-0.1616,-0.1679,-0.1716,-0.1759,-0.1779,-0.1764,-0.1709,-0.18,-0.164,-0.1623,-0.1713,-0.1704,-0.1694,-0.1681,-0.1796,-0.1795,-0.1795,-0.1794,0,-0.0744,-0.0826,-0.0914,-0.1062,-0.1123,-0.1195,-0.1369,-0.1445,-0.1553,-0.1641,-0.1673,-0.1753,-0.1767,-0.1783,-0.1813,-0.1745,-0.1725,-0.1687,-0.1775,-0.1761,-0.1543,-0.1534,-0.1576,-0.1571,-0.1568,-0.1565,-0.1562,0,-0.072,-0.0755,-0.0914,-0.0982,-0.1056,-0.1188,-0.1282,-0.143,-0.1493,-0.1632,-0.1652,-0.1714,-0.1743,-0.1674,-0.1707,-0.1682,-0.1652,-0.1638,-0.1596,-0.1544,-0.1525,-0.1521,-0.1517,-0.1557,-0.1556,-0.1555,-0.1554,0,-0.0667,-0.0717,-0.0789,-0.0929,-0.1037,-0.1156,-0.1287,-0.1324,-0.1469,-0.1574,-0.1586,-0.1588,-0.16,-0.1593,-0.1578,-0.1558,-0.1646,-0.16,-0.1607,-0.1568,-0.1522,-0.1505,-0.1505,-0.1542,-0.1543,-0.1545,-0.1545,0,-0.0621,-0.065,-0.0747,-0.0869,-0.1,-0.1087,-0.1172,-0.1249,-0.1327,-0.1462,-0.1457,-0.1515,-0.1583,-0.1528,-0.1517,-0.1482,-0.1457,-0.1405,-0.1422,-0.1436,-0.1361,-0.128,-0.1222,0,0,0,0,0,-0.0573,-0.0602,-0.0697,-0.082,-0.0943,-0.1018,-0.1164,-0.1238,-0.136,-0.133,-0.1391,-0.1391,-0.1371,-0.1402,-0.1334,-0.1453,-0.1465,-0.1368,-0.1415,-0.1473,-0.1488,-0.1409,0,0,0,0,0,0,-0.0548,-0.0605,-0.0655,-0.075,-0.0821,-0.0943,-0.1024,-0.111,-0.1103,-0.1218,-0.1212,-0.1291,-0.1291,-0.1376,-0.1296,-0.1305,-0.1303,-0.1407,-0.1403,-0.1465,-0.1478,-0.149,-0.1414,0,0,0,0,0]},{"header":{"parameterUnit":"m.s-1","parameterCategory":2,"la1":30.2991,"la2":30.254,"lo1":-89.0895,"lo2":-89.0444,"dy":0.0017,"dx":0.0017,"nx":28,"ny":28,"refTime":"2025-11-23T03:00:00:Z","depth":"4","parameterNumber":3,"parameterNumberName":"V-component_of_CURRENTS"},"data":[0,0,0,0,0,0,0,0,0,0,0,0,0,0,0,0,0,0,0,0,0,0,0,0,0,0,0,0,0,0,0,0,0,0,0,0,0,0,0,0,0,0,0,0,0,0,0,0,0,0,0,0,0,0,0,0,0,0,-0.0238,-0.0237,0,-0.0194,-0.0194,-0.0194,-0.0158,-0.0157,-0.0157,-0.0156,-0.0113,-0.0112,-0.0112,0,0,0,0,0,0,0,0,0,0,0,0,0,-0.0291,-0.0291,-0.0238,-0.0237,-0.0236,-0.0194,-0.0194,-0.0194,-0.0158,-0.0157,-0.0156,-0.0156,-0.0113,-0.0112,-0.0112,0,0,0,0,0,0,0,0,0,0,0,0,0,-0.0263,-0.0291,-0.0238,-0.0211,-0.0208,-0.0194,-0.0194,-0.0194,-0.0158,-0.0157,-0.0156,-0.0155,-0.0113,-0.0112,-0.0111,-0.0126,0,0,-0.0109,-0.0109,0,0,0,0,0,0,0,0,-0.0265,-0.0261,-0.0216,-0.0213,-0.0209,-0.0178,-0.0197,-0.017,-0.0158,-0.018,-0.0156,-0.0155,-0.0133,-0.0131,-0.0129,-0.0124,-0.0122,-0.0109,-0.0108,-0.0108,-0.0108,0,0,0,0,0,0,0,-0.0267,-0.0263,-0.0223,-0.0215,-0.0211,-0.0201,-0.0197,-0.0192,-0.0165,-0.0178,-0.0175,-0.0166,-0.0132,-0.013,-0.0128,-0.0121,-0.0109,-0.0108,-0.0108,-0.0107,-0.0137,-0.0138,0,0,0,0,0,0,-0.0267,-0.0265,-0.0225,-0.0222,-0.0232,-0.0201,-0.0196,-0.0191,-0.0165,-0.0159,-0.0166,-0.0164,-0.0132,-0.0129,-0.0126,-0.0116,-0.0108,-0.0107,-0.0107,-0.0136,-0.0137,-0.0139,0,0,0,0,0,0,-0.0268,-0.0264,-0.0226,-0.024,-0.0234,-0.0201,-0.0196,-0.0191,-0.0184,-0.0155,-0.015,-0.0163,-0.0131,-0.0127,-0.0122,-0.0115,-0.0107,-0.0106,-0.0134,-0.0136,-0.0138,-0.0112,0,0,0,0,0,0,-0.027,-0.0265,-0.0268,-0.024,-0.0233,-0.022,-0.0197,-0.0191,-0.0178,-0.0175,-0.0151,-0.0146,-0.013,-0.0124,-0.0122,-0.0113,-0.0106,-0.0133,-0.0135,-0.0137,-0.0111,-0.0112,-0.0114,0,0,0,0,0,-0.0272,-0.0279,-0.0268,-0.0263,-0.0236,-0.022,-0.0217,-0.0192,-0.0179,-0.0181,-0.0165,-0.0147,-0.0138,-0.0124,-0.0121,-0.0112,-0.0132,-0.0134,-0.0137,-0.011,-0.0112,-0.0114,0,0,0,0,0,0,-0.0304,-0.0275,-0.0263,-0.026,-0.0241,-0.0213,-0.0213,-0.0195,-0.0185,-0.0184,-0.0157,-0.0151,-0.0147,-0.0146,-0.0132,-0.0135,-0.0135,-0.0137,-0.0115,-0.0117,-0.0119,-0.0114,-0.0105,0,0,0,0,0,-0.0312,-0.0311,-0.028,-0.0279,-0.0271,-0.0244,-0.0235,-0.0219,-0.0202,-0.0196,-0.0176,-0.0168,-0.016,-0.015,-0.015,-0.0147,-0.012,-0.0146,-0.0147,-0.0148,-0.0148,-0.0087,-0.0081,-0.0148,-0.0148,-0.0148,0,0,-0.0324,-0.0308,-0.0307,-0.0286,-0.0271,-0.0261,-0.0237,-0.0229,-0.0217,-0.0195,-0.0181,-0.0172,-0.0165,-0.0158,-0.0157,-0.0151,-0.012,-0.0152,-0.0152,-0.0151,-0.0089,-0.0081,-0.0075,-0.015,-0.015,-0.015,0,0,-0.0346,-0.0334,-0.0338,-0.0324,-0.0302,-0.0282,-0.028,-0.0252,-0.0238,-0.0227,-0.0208,-0.0194,-0.0186,-0.0167,-0.0159,-0.0175,-0.0133,-0.0183,-0.0172,-0.0113,-0.0105,-0.0098,-0.0062,-0.0052,-0.0176,-0.0176,-0.0176,0,-0.036,-0.0358,-0.0338,-0.0335,-0.0323,-0.0291,-0.0289,-0.0272,-0.0245,-0.0231,-0.0226,-0.0196,-0.0188,-0.016,-0.0166,-0.0172,-0.0139,-0.0156,-0.0109,-0.0101,-0.0094,-0.0059,-0.0048,-0.0175,-0.0176,-0.0176,-0.0176,0,-0.0379,-0.0377,-0.0379,-0.0361,-0.0349,-0.0344,-0.0311,-0.0299,-0.0277,-0.025,-0.0223,-0.0204,-0.018,-0.0178,-0.0174,-0.013,-0.0123,-0.0115,-0.009,-0.0085,-0.005,-0.0039,-0.0174,-0.0174,-0.0175,-0.0175,0,0,-0.0404,-0.0394,-0.0394,-0.039,-0.0362,-0.0354,-0.0336,-0.0304,-0.0283,-0.0253,-0.0219,-0.02,-0.0176,-0.0169,-0.0151,-0.0102,-0.0031,-0.0088,-0.0085,-0.0028,0.0096,0.0072,0.0082,0.0003,0.0005,0.0007,0.0101,0,-0.042,-0.0429,-0.0414,-0.0413,-0.041,-0.0377,-0.0359,-0.0328,-0.0294,-0.0256,-0.0213,-0.0186,-0.0174,-0.016,-0.0104,-0.0057,-0.0,-0.0058,0.0061,0.0063,0.0063,0.0095,0.0013,0.0109,0.0112,0.0114,0.0115,0,-0.0435,-0.0439,-0.0451,-0.0434,-0.0429,-0.0424,-0.0386,-0.0366,-0.0304,-0.0277,-0.0224,-0.0188,-0.0125,-0.0115,0.0006,-0.0027,0.0034,0.008,0.0085,0.0063,0.0061,0.01,0.0135,0.0134,0.0132,0.0131,0.013,0,-0.046,-0.0458,-0.0472,-0.0468,-0.0447,-0.0444,-0.0426,-0.0375,-0.0358,-0.0287,-0.0266,-0.0174,-0.0139,-0.0037,0.0045,0.0038,0.0183,0.0186,0.0226,0.0225,0.0208,0.02,0.0288,0.0288,0.0288,0.0288,0.0288,0,-0.0474,-0.0483,-0.049,-0.0497,-0.0507,-0.0475,-0.0469,-0.0435,-0.0386,-0.036,-0.0281,-0.0244,-0.0114,-0.0022,0.0063,0.0174,0.0204,0.0236,0.0256,0.0212,0.0203,0.0216,0.0207,0.0291,0.0291,0.029,0.0289,0,-0.0493,-0.05,-0.0516,-0.0517,-0.0524,-0.0528,-0.0516,-0.0504,-0.0451,-0.0415,-0.0396,-0.0286,-0.0164,-0.0037,0.0123,0.0181,0.0294,0.0328,0.0261,0.0274,0.0292,0.0282,0.0389,0.039,0.039,0.039,0.039,0,-0.05,-0.0516,-0.0547,-0.0571,-0.0577,-0.0585,-0.0593,-0.0548,-0.0532,-0.0444,-0.0429,-0.0306,-0.0223,-0.0013,0.0118,0.0297,0.0314,0.0368,0.0341,0.0298,0.0307,0.0297,0.0287,0.039,0.039,0.039,0.039,0,-0.0513,-0.0533,-0.0551,-0.0611,-0.0638,-0.0655,-0.0657,-0.0649,-0.0585,-0.0545,-0.0443,-0.0322,-0.0183,-0.0019,0.0123,0.0246,0.0331,0.037,0.037,0.0345,0.03,0.0306,0.0297,0.0391,0.0391,0.0391,0.0391,0,-0.0524,-0.0547,-0.0591,-0.0634,-0.0682,-0.0707,-0.07,-0.0666,-0.0637,-0.053,-0.05,-0.0335,-0.0231,-0.0045,0.0082,0.0206,0.0231,0.0256,0.0263,0.0264,0.0192,0.0114,0.0177,0,0,0,0,0,-0.0524,-0.0558,-0.0611,-0.066,-0.0712,-0.0736,-0.0737,-0.0716,-0.0659,-0.0594,-0.0539,-0.0404,-0.0192,-0.0098,0.0023,0.0069,0.0238,0.0211,0.0266,0.0393,0.0393,0.0327,0,0,0,0,0,0,-0.0528,-0.0578,-0.061,-0.0679,-0.0719,-0.0764,-0.0765,-0.0726,-0.0676,-0.0603,-0.0488,-0.0399,-0.0195,-0.0264,0.0016,0.0055,0.01,0.0321,0.0323,0.0393,0.0393,0.0392,0.0325,0,0,0,0,0]}]]